Location: *
(34.6780°N, 135.8310°E)
Time: 23:06:19
(UTC+00:00)

Nadezhda 3 Rocket - Pass Details

Date: 18 October 2019
Orbit: 957 x 999 km, 82.9° (Epoch: 11 November)

Event Time Altitude Azimuth Distance (km) Brightness Sun altitude
Rises 19:53:58 0° 352° (N) 3,725 7.0 -15.3°
Reaches altitude 10° 19:56:30 10° 352° (N) 2,771 6.3 -14.8°
Maximum altitude 20:02:53 84° 266° (W) 1,004 4.0 -13.5°
Drops below altitude 10° 20:09:10 10° 178° (S) 2,735 6.4 -12.2°
Sets 20:11:40 0° 178° (S) 3,675 7.1 -11.7°
